Regional Weather Roundup
Issued by NWS

Home | Current Version | Previous Version | Text Only | Print | Product List | Glossary Off
Versions: 1 2 3 4 5 6 7 8 9 10 11 12 13 14 15 16 17 18 19 20 21 22 23 24 25 26 27 28 29 30 31 32 33 34 35 36 37 38 39 40 41 42 43 44 45 46 47 48 49 50

000
ASUS44 KMEG 250100
RWRTN
TENNESSEE HOURLY STATE WEATHER ROUNDUP
NATIONAL WEATHER SERVICE MEMPHIS TN
800 PM CDT THU JUL 24 2014

TNZ002-004-019-021-049-052-054-088>092-250200-
WEST TENNESSEE

CITY           SKY/WX    TMP DP  RH WIND       PRES   REMARKS
MEMPHIS INTL   PTCLDY    76  60  57 N8        30.01R
NWS MEMPHIS      N/A     76 N/A N/A MISG        N/A
JACKSON        MOCLDY    76  61  59 N6        30.00R
DYERSBURG      CLEAR     75  55  50 N7        30.02R
PARIS          CLEAR     70  61  73 N5        30.02S
LEXINGTON      CLEAR     73  63  68 N5        30.00R
$$

TNZ008-025-027-028-033-062-065-066-250200-
NORTH MIDDLE TENNESSEE

CITY           SKY/WX    TMP DP  RH WIND       PRES   REMARKS
NASHVILLE      MOCLDY    80  60  50 N13       29.99R
CLARKSVILLE    CLEAR     75  56  51 N9        30.01R
COOKEVILLE     PTCLDY    73  64  73 NE5       30.01R
CROSSVILLE     MOCLDY    70  63  78 N9        30.05R
$$

TNZ061-075-076-078-094-096-097-250200-
SOUTH MIDDLE TENNESSEE

CITY           SKY/WX    TMP DP  RH WIND       PRES   REMARKS
FAYETTEVILLE   CLEAR     73  64  73 NE12      29.99R
WINCHESTER     CLEAR     75  64  69 CALM      29.99R
SHELBYVILLE    CLEAR     75  66  73 N5        30.00R
$$

TNZ017-018-042-046-047-250200-
NORTHEAST TENNESSEE

CITY           SKY/WX    TMP DP  RH WIND       PRES   REMARKS
TRI CITIES     PTCLDY    67  62  84 NW6       30.02R
ELIZABETHTON   CLOUDY    66  64  94 CALM      30.00R
$$

TNZ012-013-036-069-073-074-250200-
CENTRAL EAST TENNESSEE

CITY           SKY/WX    TMP DP  RH WIND       PRES   REMARKS
KNOXVILLE      PTCLDY    72  64  76 N8        29.99R
OAK RIDGE      CLEAR     71  63  75 VRB5      30.01R
GATLINBURG     CLOUDY    73  63  68 N5        29.99R
$$

TNZ083-085-099-250200-
SOUTHEAST TENNESSEE

CITY           SKY/WX    TMP DP  RH WIND       PRES   REMARKS
CHATTANOOGA    PTCLDY    80  66  62 NW10      29.96R
$$

SKY/WX REPORTED AS FAIR MEANS FEW OR NO CLOUDS BELOW
12 THOUSAND FEET.



USA.gov is the U.S. government's official web portal to all federal, state and local government web resources and services.